Theta_e
277 277 276 276 276 276 276 276 276 276 276 276 277 277 277 277 276 276 276 275 275 276
276 276 276 276 276 276 276 278 276 276 276 276 276 277 276 275 275 275 276 276 276 275
276 276 276 276 275 276 276 276 276 276 275 276 276 276 275 275 276 275 275 276 275 275
276 276 276 276 275 276 276 276 276 276 276 276 276 276 275 274 275 275 275 275 275 275
276 276 276 276 276 276 276 277 277 277 277 277 277 276 275 275 275 274 274 274 274 275
276 275 275 275 276 277 276 277 277 277 276 276 277 276 275 275 275 275 275 275 275 275
276 276 277 277 277 278 277 276 276 277 276 277 276 277 276 277 276 276 277 277 279 279
276 276 277 277 276 277 277 276 276 276 276 276 276 277 277 279 278 277 278 279 280 280
276 276 276 276 276 276 276 276 275 275 276 275 277 280 283 283 279 279 279 279 279 280
275 275 275 275 275 275 274 275 275 275 275 274 275 280 283 284 282 279 278 278 279 280
275 274 274 274 274 274 274 274 274 275 275 276 276 281 283 284 281 278 278 279 279 279
273 273 273 273 273 274 274 274 274 276 275 275 275 280 282 283 277 277 279 280 280 280
273 272 272 272 273 274 274 274 275 275 276 276 275 279 282 283 279 275 278 281 280 283
272 272 272 273 273 274 273 273 273 274 274 274 275 276 282 283 280 279 280 278 279 280
Wind_Speed
8 5 4 4 4 4 3 3 3 3 2 1 2 2 2 1 2 2 2 4 4 3
7 7 6 6 5 4 3 3 3 3 2 1 2 2 2 2 3 2 3 4 5 4
7 7 7 6 6 5 4 3 3 2 0 1 2 3 3 3 4 4 3 4 5 4
6 6 6 5 5 5 4 3 2 1 1 2 3 3 3 4 5 5 5 5 5 6
7 6 6 5 5 4 3 1 0 1 2 3 4 3 4 5 5 6 6 6 5 7
8 8 6 5 4 3 2 1 2 3 3 4 5 4 5 5 6 6 6 7 7 8
8 7 6 5 4 3 3 2 2 3 4 5 5 6 6 7 8 7 7 7 8 9
6 5 4 5 5 3 2 2 3 4 4 5 5 5 6 8 6 6 7 7 9 10
6 6 5 3 3 1 2 3 3 4 4 5 5 10 12 10 2 4 6 9 10 11
6 5 3 2 1 1 2 3 4 5 4 5 5 10 13 14 4 4 6 10 11 11
4 3 2 1 1 2 3 4 4 5 5 6 6 11 13 14 5 5 9 11 12 12
3 2 2 0 2 3 3 4 4 5 5 5 6 12 12 13 4 5 10 11 11 11
2 1 1 1 1 2 3 4 5 6 5 8 6 11 15 13 2 5 9 9 9 17
1 1 2 2 3 2 2 4 4 5 5 6 6 6 15 17 6 7 6 8 9 9
Wind_Direction
123 123 117 125 122 122 120 125 121 104 102 76 11 356 356 314 285 243 304 287 261 253
118 121 125 120 115 122 123 145 132 110 92 15 336 325 311 282 295 315 281 264 255 246
127 123 124 122 128 133 132 103 114 115 104 310 313 310 316 313 302 286 271 266 269 262
110 108 110 113 121 128 122 130 141 163 304 309 314 319 320 291 274 268 269 265 263 269
113 106 102 104 111 113 113 116 63 324 320 326 315 288 275 271 285 268 273 276 273 272
117 114 110 107 101 100 88 37 6 1 316 294 290 278 270 258 258 260 263 266 268 281
119 120 124 122 105 63 31 15 307 304 300 298 291 286 266 260 257 254 260 259 265 270
97 96 95 85 74 59 6 343 303 297 301 291 286 265 253 252 252 261 275 272 280 279
95 81 80 79 70 43 320 312 312 300 295 290 291 298 292 309 279 280 285 294 291 279
110 112 109 103 96 307 306 301 300 287 289 283 279 298 312 310 327 274 276 281 278 283
111 113 96 47 337 314 307 304 294 294 284 286 298 318 318 316 306 277 275 275 275 275
105 124 121 112 321 308 300 306 296 294 297 288 292 323 321 315 263 272 280 282 284 284
33 344 312 274 269 281 302 300 307 305 300 304 306 319 317 329 307 281 286 293 283 300
317 298 263 298 303 299 305 314 289 297 292 292 297 302 327 325 325 300 312 309 311 304